| time (UTC) | temp F | wind direction | speed MPH | gust MPH | rain 1hr in | rain 24hr in | rain mn in | humidity % | barometer mb |
| 20260504213105 | 66 | 19 | 3.0 | 3.0 | 0.00 | 0.00 | 0.00 | 93 | 1011.0 |
| 20260504211605 | 65 | 23 | 3.0 | 2.0 | 0.00 | 0.00 | 0.00 | 94 | 1010.0 |
| 20260504210110 | 65 | 23 | 3.0 | 2.0 | 0.00 | 0.00 | 0.00 | 94 | 1011.0 |
| 20260504204604 | 66 | 23 | 3.0 | 2.0 | 0.00 | 0.00 | 0.00 | 93 | 1011.0 |
| 20260504203105 | 66 | 23 | 3.0 | 2.0 | 0.00 | 0.00 | 0.00 | 94 | 1011.0 |
| 20260504201602 | 66 | 24 | 3.0 | 3.0 | 0.00 | 0.00 | 0.00 | 94 | 1010.0 |
| 20260504200107 | 66 | 24 | 3.0 | 3.0 | 0.00 | 0.00 | 0.00 | 94 | 1011.0 |
| 20260504194603 | 66 | 24 | 3.0 | 3.0 | 0.00 | 0.00 | 0.00 | 94 | 1011.0 |
| 20260504193107 | 66 | 24 | 3.0 | 3.0 | 0.00 | 0.00 | 0.00 | 94 | 1011.0 |
| 20260504191602 | 66 | 17 | 3.0 | 2.0 | 0.00 | 0.00 | 0.00 | 95 | 1011.0 |
| 20260504190101 | 64 | 17 | 3.0 | 2.0 | 0.00 | 0.00 | 0.00 | 95 | 1011.0 |
| 20260504183101 | 66 | 17 | 3.0 | 2.0 | 0.00 | 0.00 | 0.00 | 95 | 1011.0 |
| 20260504181601 | 55 | 21 | 3.0 | 3.0 | 0.00 | 0.00 | 0.00 | 94 | 1011.0 |
| 20260504174601 | 59 | 21 | 3.0 | 3.0 | 0.00 | 0.00 | 0.00 | 94 | 1011.0 |
| 20260504173101 | 61 | 21 | 3.0 | 3.0 | 0.00 | 0.00 | 0.00 | 94 | 1011.0 |
| 20260504171601 | 63 | 21 | 3.0 | 3.0 | 0.00 | 0.00 | 0.00 | 94 | 1012.0 |
| 20260504140103 | 63 | 76 | 2.0 | 2.0 | 0.00 | 0.00 | 0.00 | 95 | 1013.0 |
| 20260504130105 | 58 | 55 | 3.0 | 2.0 | 0.00 | 0.00 | 0.00 | 96 | 1013.0 |
| 20260504120108 | 66 | 55 | 3.0 | 2.0 | 0.00 | 0.00 | 0.00 | 96 | 1012.0 |
| 20260504110112 | 61 | 136 | 3.0 | 4.0 | 0.00 | 0.00 | 0.00 | 94 | 1011.0 |
| 20260504100114 | 69 | 136 | 3.0 | 4.0 | 0.00 | 0.00 | 0.00 | 94 | 1010.0 |
| 20260504090113 | 65 | 170 | 3.0 | 4.0 | 0.00 | 0.00 | 0.00 | 90 | 1010.0 |
| 20260504081604 | 71 | 170 | 3.0 | 4.0 | 0.00 | 0.00 | 0.00 | 90 | 1010.0 |
| 20260504080112 | 62 | 176 | 3.0 | 3.0 | 0.00 | 0.00 | 0.00 | 87 | 1010.0 |
| 20260504070109 | 70 | 176 | 3.0 | 3.0 | 0.02 | 0.00 | 0.00 | 87 | 1010.0 |
| 20260504060119 | 67 | 161 | 4.0 | 3.0 | 0.00 | 0.00 | 0.00 | 87 | 1011.0 |
| 20260504050103 | 73 | 161 | 4.0 | 3.0 | 0.00 | 0.00 | 0.00 | 82 | 1011.0 |
| 20260504044600 | 73 | 161 | 4.0 | 3.0 | 0.00 | 0.00 | 0.00 | 83 | 1011.0 |
| 20260504043101 | 73 | 161 | 4.0 | 3.0 | 0.06 | 0.00 | 0.00 | 81 | 1012.0 |
| 20260504041600 | 73 | 158 | 4.0 | 4.0 | 0.00 | 0.00 | 0.00 | 87 | 1012.0 |
| 20260504040104 | 73 | 158 | 4.0 | 4.0 | 0.00 | 0.00 | 0.00 | 82 | 1012.0 |
| 20260504034604 | 73 | 158 | 4.0 | 4.0 | 0.00 | 0.00 | 0.00 | 83 | 1012.0 |
| 20260504033106 | 73 | 158 | 4.0 | 4.0 | 0.03 | 0.00 | 0.00 | 81 | 1013.0 |
| 20260504031601 | 72 | 158 | 4.0 | 4.0 | 0.00 | 0.00 | 0.00 | 88 | 1013.0 |
| 20260504030105 | 72 | 158 | 4.0 | 4.0 | 0.00 | 0.00 | 0.00 | 84 | 1013.0 |
| 20260504024600 | 71 | 158 | 4.0 | 4.0 | 0.00 | 0.00 | 0.00 | 85 | 1013.0 |
| 20260504023104 | 71 | 158 | 4.0 | 4.0 | 0.01 | 0.00 | 0.00 | 85 | 1013.0 |
| 20260504021600 | 70 | 164 | 4.0 | 4.0 | 0.00 | 0.00 | 0.00 | 91 | 1013.0 |
| 20260504020108 | 70 | 164 | 4.0 | 4.0 | 0.00 | 0.00 | 0.00 | 88 | 1013.0 |
| 20260504014601 | 69 | 164 | 4.0 | 4.0 | 0.00 | 0.00 | 0.00 | 88 | 1013.0 |
| 20260504013108 | 69 | 164 | 4.0 | 4.0 | 0.01 | 0.00 | 0.00 | 88 | 1013.0 |
| 20260504011605 | 68 | 162 | 3.0 | 3.0 | 0.00 | 0.00 | 0.00 | 92 | 1013.0 |
| 20260504010105 | 67 | 162 | 3.0 | 3.0 | 0.00 | 0.00 | 0.00 | 91 | 1013.0 |
| 20260504004603 | 67 | 162 | 3.0 | 3.0 | 0.00 | 0.00 | 0.00 | 89 | 1013.0 |
| 20260504003110 | 67 | 162 | 3.0 | 3.0 | 0.00 | 0.00 | 0.00 | 89 | 1013.0 |
| 20260504001602 | 67 | 140 | 1.0 | 2.0 | 0.00 | 0.00 | 0.00 | 94 | 1012.0 |
| 20260504000110 | 67 | 140 | 1.0 | 2.0 | 0.00 | 0.00 | 0.00 | 94 | 1012.0 |
| 20260503234602 | 66 | 91 | 1.0 | 2.0 | 0.00 | 0.00 | 0.00 | 94 | 1012.0 |
| 20260503233105 | 66 | 91 | 1.0 | 2.0 | 0.00 | 0.00 | 0.00 | 94 | 1012.0 |
| 20260503231601 | 65 | 42 | 1.0 | 2.0 | 0.00 | 0.00 | 0.00 | 97 | 1012.0 |
| 20260503230103 | 65 | 42 | 1.0 | 2.0 | 0.00 | 0.00 | 0.00 | 96 | 1012.0 |
| 20260503224601 | 65 | 42 | 1.0 | 2.0 | 0.00 | 0.00 | 0.00 | 96 | 1012.0 |
| 20260503223103 | 65 | 42 | 1.0 | 2.0 | 0.00 | 0.00 | 0.00 | 97 | 1012.0 |
| 20260503221601 | 65 | 27 | 1.0 | 2.0 | 0.00 | 0.00 | 0.00 | 97 | 1011.0 |
| 20260503220109 | 65 | 27 | 1.0 | 2.0 | 0.00 | 0.00 | 0.00 | 97 | 1011.0 |
| 20260503214601 | 65 | 27 | 1.0 | 2.0 | 0.00 | 0.00 | 0.00 | 97 | 1011.0 |